Retour au catalogue

FENGYUN 1C DEB

ActifPO
NORAD 31036·DEBRIS·🇨🇳 China

Lancé May 10, 1999 depuis Taiyuan Satellite Launch Center

Loading…

Prochains Passages (prochaines 24 heures)

TLE

FraisSource: Space-Track

Époque: Sep 14, 2026, 14:31 UTC

1 31036U 99025BEE 26257.60502497  .00000591  00000-0  14962-3 0  9993
2 31036  98.9410  25.0409 0138060 155.7542 270.2272 14.49521012613037

Suivez FENGYUN 1C DEB en temps réel avec AllMySat

Download on the App Store